{"data":{"norad_id":62836,"intl_designator":"2025-019H","name":"STARLINK-11533 [DTC]","alt_names":[],"object_type":"PAYLOAD","status":"ACTIVE","operator":null,"country":"US","launch_date":"2025-01-27","launch_site_code":"AFETR","launch_vehicle":null,"mission":null,"orbit_class":"UNKNOWN","rcs_meters":null,"size_class":null,"mass_kg":null,"dimensions":null,"purposes":["comms"],"wikipedia_slug":null,"has_3d_model":false,"image_url":null,"decayed_at":null,"tle_current":{"epoch":"2026-09-21T13:12:11.461824Z","epoch_age_seconds":77827,"freshness":"FRESH","line1":"1 62836U 25019H   26264.55013266  .00145695  00000+0  11158-2 0  9997","line2":"2 62836  43.0003 205.4772 0000808 303.9395  56.1395 15.70910709 94687","mean_motion":15.70910709,"eccentricity":8.08e-5,"inclination_deg":43.0003,"raan_deg":205.4772,"arg_perigee_deg":303.9395,"mean_anomaly_deg":56.1395,"bstar":0.0011158,"rev_number":9468,"period_min":91.666572246914,"perigee_km":355.74882765231,"apogee_km":356.8371115354,"semimajor_km":6734.4299695939,"source":"CELESTRAK","updated_at":"2026-09-22T09:00:49.672412Z"}}}